Location: Joplin, MO
(37.0842°N, 94.5133°W)
Time: 19:09:13
(UTC+02:00)

Transit 2A Rocket - Pass Details

Date: 04 April 2023
Orbit: 584 x 914 km, 66.7° (Epoch: 09 June)

Event Time Altitude Azimuth Distance (km) Brightness Sun altitude
Rises 03:41:02 0° 317° (NW) 3,529 9.5 -12.3°
Reaches altitude 10° 03:44:09 10° 303° (WNW) 2,556 9.0 -12.9°
Maximum altitude 03:48:30 21° 256° (WSW) 1,815 7.7 -13.7°
Drops below altitude 10° 03:52:39 10° 208° (SSW) 2,418 7.7 -14.5°
Sets 03:55:32 0° 192° (SSW) 3,287 8.2 -15.0°
